www.pogodaiklimat.ru

Погода и климат >> Архив погоды >> Мадагаскар >> Нуси Бураха


ПОГОДА на Нуси Бураха

  • Прогноз погоды на Нуси Бураха
  • Монитор погоды на Нуси Бураха

АРХИВ ПОГОДЫ на Нуси Бураха

Время (UTC), дата Ветер
(напр.,м/с)
 
Видим.   Явления Облачность Т
(С)
Тd
(С)
f
(%)
Тe
(С)
Тes
(С)
Комфортность P
(гПа)
Po
(гПа)
Тmin
(С)
Tmax
(С)
R
(мм)
R24
(мм)
S
(см)
00 12.07 Ю 2 30 км 3/3 500 м
[Cu med, cong]
+22.6 +17.8 74 +28 +28 душно 1018.5 1018.2
03 12.07 штиль 0 35 км 5/5 500 м
[Cu med, cong]
+20.0 +19.0 94 +23 +23 комфорт 1018.9 1018.6
06 12.07 З 5 20 км осадки на расстоянии 8/8 500 м
[Cu Sc]
+23.6 +20.4 82 +29 +30 душно 1020.6 1020.3 +20.0 +25.7 0.6
09 12.07 Ю 4 20 км осадки на расстоянии 8/8 500 м
[Cu med, cong]
+24.5 +20.7 79 +30 +32 очень
душно
1019.6 1019.3 4
12 12.07 ЮЗ 6 20 км осадки на расстоянии 9/9 500 м
[Cu Sc]
+23.3 +19.9 81 +30 +30 очень
душно
1018.6 1018.3 6
15 12.07 Ю 1 20 км осадки на расстоянии 10/10 500 м
[Cu Sc]
+21.8 +18.7 83 +27 +27 душно 1019.8 1019.5 +26.5 2
00 13.07 ЮЗ 4 8000 м слаб. дождь 10/10 500 м
[Cu Sc]
+21.0 +20.4 96 +26 +26 душно 1020.4 1020.1
03 13.07 ЮЗ 3 20 км осадки на расстоянии 8/8 500 м
[Cu med, cong]
+22.0 +20.6 92 +28 +28 душно 1021.0 1020.7 8
06 13.07 ЮВ 4 20 км осадки на расстоянии 5/5
[Cu med, cong]
+25.0 +18.8 68 +30 +32 душно 1022.6 1022.3 +21.0 +26.5 14
00 14.07 Ю 5 30 км 4/4 500 м
[Cu med, cong]
+22.5 +14.0 59 +26 +26 жарко 1021.8 1021.5
03 14.07 Ю 4 25 км осадки на расстоянии 8/8 500 м
[Cu Sc]
+22.7 +14.3 59 +26 +26 жарко 1022.4 1022.1
06 14.07 Ю 6 15 км осадки на расстоянии 9/9 500 м
[Cu med, cong]
+22.3 +16.8 71 +27 +27 душно 1024.4 1024.1 +22.3 +27.1
09 14.07 Ю 5 35 км 6/6 500 м
[Cu Sc]
+26.2 +13.6 46 +28 +31 жарко 1022.8 1022.5
12 14.07 Ю 5 35 км 8/8 500 м
[Cu Sc]
+25.5 +13.9 49 +28 +28 жарко 1021.9 1021.6
15 14.07 Ю 4 35 км 5/5 500 м
[Cu Sc]
+23.1 +14.2 57 +27 +27 душно 1022.4 1022.1 +26.6
00 15.07 Ю 5 35 км 3/3 600 м
[Cu med, cong]
+23.0 +14.2 58 +27 +27 душно 1021.9 1021.6 0.2
03 15.07 Ю 4 25 км осадки на расстоянии 5/5 500 м
[Cu med, cong]
+23.0 +15.4 62 +27 +27 душно 1022.5 1022.2
06 15.07 Ю 5 35 км 6/6 500 м
[Cu med, cong]
+24.2 +16.1 61 +28 +29 душно 1024.1 1023.8 +22.0 +26.6 0.2
09 15.07 Ю 5 40 км 6/6 500 м
[Cu med, cong]
+26.0 +15.6 53 +29 +32 душно 1023.6 1023.3
12 15.07 Ю 4 40 км 3/3 500 м
[Cu med, cong]
+25.8 +14.1 48 +28 +30 жарко 1021.9 1021.6
15 15.07 Ю 3 35 км 9/9 500 м
[Cu Sc]
+23.6 +15.4 60 +27 +27 жарко 1022.8 1022.5 +26.4
00 16.07 Ю 4 8000 м слаб. дождь 10/10 500 м
[Cu Sc]
+21.0 +18.8 87 +26 +26 душно 1022.9 1022.8 1
03 16.07 В 2 8000 м дождь 10/10 500 м
[Cu Sc]
+20.4 +19.8 96 +25 +25 комфорт 1023.6 1023.3 12
06 16.07 ЮВ 5 20 км осадки на расстоянии 9/9 500 м
[Cu Sc]
+24.4 +17.8 67 +29 +29 душно 1025.3 1025.0 +19.5 +26.4 21
09 16.07 ЮВ 5 20 км осадки на расстоянии 9/9 300 м
[St Ac lent]
+24.0 +18.0 69 +28 +29 душно 1025.2 1024.9 10
12 16.07 ЮВ 4 35 км 4/4 500 м
[Cu med, cong]
+25.5 +16.0 56 +29 +31 душно 1024.3 1024.0
15 16.07 ЮВ 4 20 км осадки на расстоянии 6/6 500 м
[Cu Sc]
+23.8 +16.3 63 +27 +27 жарко 1024.9 1024.6 +26.1
00 17.07 ЮВ 3 20 км осадки на расстоянии 9/9 500 м
[Cu Sc]
+22.2 +18.1 78 +27 +27 душно 1024.8 1024.5 0.2
03 17.07 Ю 6 20 км осадки на расстоянии 9/9 500 м
[Cu Sc]
+22.2 +17.0 72 +27 +27 душно 1025.1 1024.8 0.7
06 17.07 ЮВ 6 20 км осадки на расстоянии 3/3 500 м
[Cu Sc]
+24.6 +16.5 61 +28 +30 душно 1026.8 1026.5 +20.5 +26.1 0.7
09 17.07 Ю 6 10 км осадки на расстоянии 9/9 500 м
[Cu med, cong]
+22.6 +19.5 83 +29 +29 очень
душно
1026.0 1025.7
12 17.07 Ю 7 35 км {дождь} 9/9 500 м
[Cu Sc]
+24.5 +16.6 61 +28 +28 душно 1024.3 1024.0 0.2
15 17.07 Ю 6 35 км 6/6 500 м
[Cu med, cong]
+23.6 +16.8 66 +27 +27 жарко 1024.8 1024.5 +26.2 0.2
00 18.07 ЮВ 5 35 км {дождь} 3/3 500 м
[Cu Sc]
+23.0 +16.5 67 +28 +28 душно 1023.1 1022.8 3
03 18.07 Ю 5 35 км 6/6 500 м
[Cu med, cong]
+22.8 +16.6 68 +27 +27 душно 1023.2 1022.9 3
06 18.07 Ю 4 35 км 5/5 500 м
[Cu med, cong]
+25.0 +17.4 63 +29 +32 душно 1024.8 1024.5 +19.5 +26.2 3
09 18.07 ЮЗ 6 25 км осадки на расстоянии 9/9 500 м
[Cu med, cong]
+23.7 +18.5 73 +20 +21 1023.5 1023.2
12 18.07 ЮЗ 7 25 км осадки на расстоянии 6/6 500 м
[Cu med, cong]
+25.0 +18.8 68 +30 +30 душно 1021.5 1021.2
15 18.07 Ю 4 20 км 4/4 500 м
[Cu med, cong]
+21.8 +19.3 86 +27 +27 душно 1021.2 1020.9 +26.0 0.3

 

Местоположение метеостанции Нуси Бураха (Мадагаскар): широта -17.08 долгота 49.82 высота над уровнем моря 3 м.

В архиве по умолчанию представлена погода на Нуси Бураха за последнюю неделю. Архивные данные за месяц целиком и за предыдущие месяцы, начиная с января 2011 года, Вы можете получить, выбрав интересующий диапазон дат из раскрывающегося списка и нажав кнопку "Ввод!".


*Определитесь, кто Вы:
робот инопланетянин человек

Внимание! Время в таблицах - всемирное. Для получения местного времени необходимо прибавить поправку, которая равна 3 ч.

Смотрите также архив погоды в соседних городах и на ближайших метеорологических станциях:

Погода в Туамасине (Мадагаскар) (123 км)
Погода в Амбоайтзилаозане (Мадагаскар) (153 км)
Погода в Анталахе (Мадагаскар) (249 км)
Погода в Антананариву аэропорт (Мадагаскар) (313 км)
Погода в Самбаве (Мадагаскар) (314 км)
Погода в Анцухихи (Мадагаскар) (314 км)
Погода в Антананариву (Мадагаскар) (316 км)
Погода в Мааноро (Мадагаскар) (324 км)
Погода в Махадзанге (Мадагаскар) (403 км)
Погода в Анцирабе (Мадагаскар) (420 км)

Пояснения к столбцам:

Ветер - указаны скорость ветра в м/с - средняя за 10 мин, порывы в срок и между сроками (в фигурных скобках) и направление, откуда дует ветер: С - северный, СВ - северо-восточный, В - восточный, ЮВ - юго-восточный, Ю - южный, ЮЗ - юго-западный, З - западный, СЗ - северо-западный.
Видимость - горизонтальная дальность видимости в метрах или километрах. При видимости от 1 до 10 км при отсутствии осадков обычно наблюдается дымка, при ухудшении видимости до 1 км и менее - туман. В сухую погоду видимость может ухудшаться дымом, пылью или мглою.
Явления - указаны атмосферные явления, наблюдавшиеся в срок или в последний час перед сроком; фигурными скобками обозначены явления, наблюдавшиеся между сроками (за 1-3 часа до срока); квадратными скобками обозначены град или гололедные отложения с указанием их диаметра в мм.
Облачность - указаны через наклонную черту общая и нижняя облачность в баллах и высота нижней границы облаков в метрах; квадратными скобками обозначены формы облаков: Ci - перистые, Cs - перисто-слоистые, Cc - перисто-кучевые, Ac - высококучевые, As - высокослоистые, Sc - слоисто-кучевые, Ns - слоисто-дождевые, Cu - кучевые, Cb - кучево-дождевые. Подробнее классификацию облаков см. в Атласе облаков (PDF).
T - Температура воздуха - температура, измеренная на высоте 2 м над землей.
Td - Температура точки росы - температура, при понижении до которой содержащийся в воздухе водяной пар достигнет насыщения.
f - Относительная влажность воздуха - влажноcть воздуха, измеренная на высоте 2 м над землей.
Te - Эффективная температура - температура, которую ощущает одетый по сезону человек в тени. Характеристика душности погоды. При расчете учитывается влияние влажности воздуха и скорости ветра на теплоощущения человека.
Tes - Эффективная температура на солнце - температура, которую ощущает человек, с поправкой на солнечный нагрев. Характеристика знойности погоды. Зависит от высоты солнца над горизонтом, облачности и скорости ветра. Ночью, в пасмурную погоду, а также при ветре 12 м/с и более поправка равна нулю.
P - Атмосферное давление - приведенное к уровню моря атмосферное давление.
Po - Атмосферное давление - измеренное на уровне метеостанции атмосферное давление.
Tmin - Минимальная температура - минимум температуры воздуха на высоте 2 м над землей.
Tmax - Максимальная температура - максимум температуры воздуха на высоте 2 м над землей.
R - Количество осадков - Количество выпавших осадков за период времени, мм. При наведении курсора мыши на число - период времени, за который выпало указанное количество осадков.
R24 - Количество осадков - Количество выпавших осадков за 24 часа, мм.
S - Снежный покров - Высота снежного покрова, см. При наведении курсора мыши на число - состояние снежного покрова и степень покрытия местности в баллах.